Lexington Weather

Lexington, Massachusetts, USA

34°F
4/16/2021 10:37am 
  • Lexington Conditions: Snow, Fog, Overcast
  • Temperature: 34.0°F / 1.1°C 
  • Dew Point: 32.7°F 
  • Relative Humidity: 95
  • Wind: Calm, 10-min avg: Calm, gust: None
  • Barometer: 29.48 in Steady
  • Visibility: ½ mile
  • Snow Today: 1.3 in
  •   

Regional Weather Roundup
for Boston / Norton, MA

        
000
ASUS41 KBOX 150804
RWRBOX

REGIONAL WEATHER ROUNDUP
NATIONAL WEATHER SERVICE BOSTON/NORTON MA
400 AM EDT THU APR 15 2021

NOTE:  "FAIR" INDICATES FEW OR NO CLOUDS BELOW 12,000 FEET WITH NO 
SIGNIFICANT WEATHER AND/OR OBSTRUCTIONS TO VISIBILITY.

MAZALL-150900-
EASTERN MASSACHUSETTS
  
CITY           SKY/WX    TMP DP  RH WIND       PRES   REMARKS
BOSTON         CLOUDY    47  40  76 SE6       29.92S                  
BEVERLY        NOT AVBL                                               
LAWRENCE       PTCLDY    46  39  76 CALM      29.92F                  
BEDFORD        MOCLDY    46  38  73 CALM      29.90S                  
BLUE HILL        N/A     43  39  86 SE8       29.88S                  
NORWOOD        CLOUDY    46  40  79 CALM      29.90F                  
MARSHFIELD     CLOUDY    45  39  81 CALM      29.91F                  
PLYMOUTH       CLOUDY    42  37  82 SE5       29.91S                  
TAUNTON          N/A    N/A N/A N/A MISG      29.91S                  
NEW BEDFORD      N/A     45  37  73 SE6       29.91S                  
$$

MAZALL-150900-
CAPE COD AND THE ISLANDS
  
CITY           SKY/WX    TMP DP  RH WIND       PRES   REMARKS
FALMOUTH       CLOUDY    43  39  87 S6        29.92                   
HYANNIS        MOCLDY    44  39  82 S3        29.90F                  
CHATHAM        CLOUDY    43  39  86 S3        29.93R                  
PROVINCETOWN     N/A     42  38  85 S5        29.93S                  
NANTUCKET      PTCLDY    42  40  92 S7        29.91F                  
MARTHAS VNYRD  CLOUDY    44  40  85 SE7       29.91S                  
$$
 
MAZALL-150900-
CENTRAL AND WESTERN MASSACHUSETTS
  
CITY           SKY/WX    TMP DP  RH WIND       PRES   REMARKS
WORCESTER      CLOUDY    44  37  76 SE8       29.87F                  
FITCHBURG      CLOUDY    46  38  73 E5        29.90S                  
ORANGE         CLOUDY    47  40  76 SE5       29.87F                  
SPRINGFIELD    CLOUDY    47  41  79 SE5       29.85S                  
WESTFIELD      CLOUDY    48  42  80 SE3       29.85S                  
NORTH ADAMS    CLOUDY    53  43  68 E10       29.79F                  
PITTSFIELD     LGT RAIN  50  43  77 NE6       29.78F                  
$$
 
RIZALL-150900-
RHODE ISLAND
  
CITY           SKY/WX    TMP DP  RH WIND       PRES   REMARKS
PROVIDENCE     CLOUDY    46  39  76 SE6       29.90F                  
NEWPORT        CLOUDY    44  38  79 SE8       29.89F                  
BLOCK ISLAND   CLOUDY    44  39  82 SE13      29.89S                  
SMITHFIELD     CLOUDY    44  41  89 VRB3      29.89F                  
WESTERLY       CLOUDY    44  40  85 E9        29.88F                  
$$
 
CTZALL-150900-
CONNECTICUT
  
CITY           SKY/WX    TMP DP  RH WIND       PRES   REMARKS
BRADLEY INTL   CLOUDY    48  41  76 E6        29.85F                  
HARTFORD       CLOUDY    49  43  80 SE5       29.85F                  
BRIDGEPORT     LGT RAIN  48  46  93 E14       29.82F                  
DANBURY        CLOUDY    51  46  83 E6        29.82F                  
GROTON         CLOUDY    46  42  86 E14       29.86F                  
NEW HAVEN      CLOUDY    50  47  89 E7        29.83F                  
CHESTER        CLOUDY    46  45  93 E8        29.84F                  
MERIDEN        CLOUDY    49  44  83 CALM      29.84F                  
WILLIMANTIC    CLOUDY    46  40  79 VRB3      29.87F                  
OXFORD         CLOUDY    47  32  56 E5        29.83F                  
$$

MEZ002-015-021-024-NHZ003-005-008-011-012-014-VTZ005-008-150900-
NORTHERN NEW ENGLAND
  
CITY           SKY/WX    TMP DP  RH WIND       PRES   REMARKS
PORTLAND ME    CLOUDY    38  37  97 CALM      29.92S                  
BANGOR ME      CLEAR     34  32  92 CALM      29.93F                  
CONCORD NH     PTCLDY    42  38  85 SE3       29.90F                  
MANCHESTER NH  CLOUDY    46  38  73 S5        29.89F                  
NASHUA NH      MOCLDY    44  40  85 CALM      29.91F                  
PORTSMOUTH NH  MOCLDY    44  39  84 CALM      29.91F                  
JAFFREY NH     MOCLDY    41  37  86 CALM      29.87S                  
KEENE NH       CLOUDY    47  39  74 S6        29.87S                  
BURLINGTON VT  LGT RAIN  55  42  61 E10       29.76F                  
MT. WASHINGTON PTCLDY    32  30  93 S9          N/A  WCI  24          
$$

NYZ052-076-150900-
EASTERN NEW YORK
  
CITY           SKY/WX    TMP DP  RH WIND       PRES   REMARKS
ALBANY         CLOUDY    55  48  77 S7        29.77F                  
NEW YORK CITY  CLOUDY    50  46  86 NE10      29.80F                  
$$
 
ANZALL-150900-
MARINE OBSERVATIONS
  
STATION/POSITION TIME  TEMP    WIND        PRES    VSBY  WAVE
                       AIR SEA DIR/SP/G                  HT/PER
                 (UTC) (F)     (DEG/KT/KT) (MB)    (MI)  (FT/S)
BOSTON BUOY      0740   44 44  170/  6/  8 1013.5S
BUZZARDS BAY     0700          120/ 11/ 12 1013.8F
NANTUCKET SOUND  0740      47                N/A
MASS BAY-STELLWA 0704   45     180/  8/  8 1012.0F  1 7/8  4/11
ISLE OF SHOALS   0700   45     180/  6/  7 1012.9F
S OF BLOCK IS    0726      45                N/A           3/12
$$

......................KEY.........................
  SKY/WX - SKY CONDITION/PRESENT WEATHER
  TMP    - TEMPERATURE IN FAHRENHEIT
  DWPT   - DEWPOINT IN FAHRENHEIT
  RH     - RELATIVE HUMIDITY IN PERCENT
  WIND   - DIRECTION AND SPEED IN MPH
  PRES   - MEAN SEA LEVEL PRESSURE IN INCHES OF HG
  WCI    - WIND CHILL INDEX
  VSB    - VISIBILITY IN MILES
  HX     - HEAT INDEX
  TC     - TEMPERATURE IN CELSIUS
  VRB    - VARIABLE WIND DIRECTION
  N/A    - NOT AVAILABLE
  
      

Other recent Regional Weather Roundups

Fri Apr 16, 10:05am

Fri Apr 16, 9:04am

Fri Apr 16, 8:04am

Fri Apr 16, 7:04am

Fri Apr 16, 6:04am

Fri Apr 16, 5:04am

Fri Apr 16, 4:04am

Fri Apr 16, 3:04am

Fri Apr 16, 2:04am

Fri Apr 16, 1:04am

Fri Apr 16, 12:04am

Thu Apr 15, 11:05pm

Thu Apr 15, 10:04pm

Thu Apr 15, 9:04pm

Thu Apr 15, 8:04pm

Thu Apr 15, 7:05pm

Thu Apr 15, 6:04pm

Thu Apr 15, 5:05pm

Thu Apr 15, 4:04pm

Thu Apr 15, 3:05pm

Thu Apr 15, 2:04pm

Thu Apr 15, 1:05pm

Thu Apr 15, 12:04pm

Thu Apr 15, 11:04am

Thu Apr 15, 10:05am

Thu Apr 15, 9:04am

Thu Apr 15, 8:04am

Thu Apr 15, 7:04am

Thu Apr 15, 6:04am

Thu Apr 15, 5:04am

Thu Apr 15, 3:04am

Thu Apr 15, 2:04am

Thu Apr 15, 1:04am

Thu Apr 15, 12:04am

Wed Apr 14, 11:04pm

Wed Apr 14, 10:04pm

Wed Apr 14, 9:04pm

Wed Apr 14, 8:04pm

Wed Apr 14, 7:04pm

Wed Apr 14, 6:04pm

Wed Apr 14, 5:05pm

Wed Apr 14, 4:04pm

Wed Apr 14, 3:05pm

Wed Apr 14, 2:04pm

Wed Apr 14, 1:05pm

Wed Apr 14, 12:04pm

Wed Apr 14, 11:04am

Wed Apr 14, 10:04am

Wed Apr 14, 9:04am

Wed Apr 14, 8:04am

Wed Apr 14, 7:04am

Wed Apr 14, 6:04am

Wed Apr 14, 5:04am

Wed Apr 14, 4:04am

Wed Apr 14, 3:04am

Wed Apr 14, 2:04am

Wed Apr 14, 1:04am

Wed Apr 14, 12:04am

Tue Apr 13, 11:04pm

Tue Apr 13, 10:05pm

Tue Apr 13, 9:05pm

Tue Apr 13, 8:05pm

Tue Apr 13, 7:04pm

Tue Apr 13, 6:04pm

Tue Apr 13, 5:05pm

Tue Apr 13, 4:04pm

Tue Apr 13, 3:04pm

Tue Apr 13, 2:05pm

Tue Apr 13, 1:04pm

Tue Apr 13, 12:05pm

Tue Apr 13, 11:05am

Tue Apr 13, 10:04am

Tue Apr 13, 9:04am

Tue Apr 13, 8:04am

Tue Apr 13, 7:04am

Tue Apr 13, 6:04am

Tue Apr 13, 5:04am

Tue Apr 13, 4:04am

Tue Apr 13, 3:04am

Tue Apr 13, 2:04am

Tue Apr 13, 1:04am

Tue Apr 13, 12:05am

Mon Apr 12, 11:04pm

Mon Apr 12, 10:04pm

Mon Apr 12, 9:04pm

Mon Apr 12, 8:04pm

Mon Apr 12, 7:05pm

Mon Apr 12, 6:04pm

Mon Apr 12, 5:04pm

Mon Apr 12, 4:04pm

Mon Apr 12, 3:05pm

Mon Apr 12, 2:04pm

Mon Apr 12, 1:05pm

Mon Apr 12, 12:04pm

Mon Apr 12, 11:04am

Mon Apr 12, 10:04am

Mon Apr 12, 9:04am

Mon Apr 12, 8:04am

Mon Apr 12, 7:04am

Mon Apr 12, 6:04am

Mon Apr 12, 5:04am

Mon Apr 12, 4:04am

Mon Apr 12, 3:04am

Mon Apr 12, 2:04am

Mon Apr 12, 1:05am

Mon Apr 12, 12:04am

Sun Apr 11, 11:04pm

Sun Apr 11, 10:04pm

Sun Apr 11, 9:04pm

Sun Apr 11, 8:04pm

Sun Apr 11, 7:04pm

Sun Apr 11, 6:05pm

Sun Apr 11, 5:05pm

Sun Apr 11, 4:04pm

Sun Apr 11, 3:05pm

Sun Apr 11, 2:05pm

Sun Apr 11, 1:05pm

Sun Apr 11, 12:04pm

Sun Apr 11, 11:05am

Sun Apr 11, 10:05am

Sun Apr 11, 9:04am

Sun Apr 11, 8:04am

Sun Apr 11, 7:04am

Sun Apr 11, 6:04am

Sun Apr 11, 5:04am

Sun Apr 11, 4:04am

Sun Apr 11, 3:04am

Sun Apr 11, 2:04am

Sun Apr 11, 1:05am

Sun Apr 11, 12:04am

Sat Apr 10, 11:05pm

Sat Apr 10, 10:04pm

Sat Apr 10, 9:04pm

Sat Apr 10, 8:04pm

Sat Apr 10, 7:05pm

Sat Apr 10, 6:04pm

Sat Apr 10, 5:04pm

Sat Apr 10, 4:04pm

Sat Apr 10, 3:04pm

Sat Apr 10, 2:05pm

Sat Apr 10, 1:04pm

Sat Apr 10, 12:04pm

Sat Apr 10, 11:04am

Sat Apr 10, 10:04am

Sat Apr 10, 9:04am

Sat Apr 10, 8:04am

Sat Apr 10, 7:04am

Sat Apr 10, 6:04am

Sat Apr 10, 5:04am

Sat Apr 10, 4:04am

Sat Apr 10, 3:04am

Sat Apr 10, 2:04am

Sat Apr 10, 1:05am

Sat Apr 10, 12:04am

Fri Apr 9, 11:04pm

Fri Apr 9, 10:05pm

Fri Apr 9, 9:04pm

Fri Apr 9, 8:05pm

Fri Apr 9, 7:05pm

Fri Apr 9, 6:04pm

Fri Apr 9, 5:04pm

Fri Apr 9, 4:05pm

Fri Apr 9, 3:05pm

Fri Apr 9, 2:04pm

Fri Apr 9, 1:04pm

Fri Apr 9, 12:04pm

Fri Apr 9, 11:05am

Meta data:

ID: baf58f7e-8256-4816-90c5-b3ce03061992
Link: https://api.weather.gov/products/baf58f7e-8256-4816-90c5-b3ce03061992